GFSGL_con_sbcape_195.txt.gz
CAPE
2535 2484 2751 2146 2313 2313 2219 2362 2588 2622 2797 3003 3111 2952 2468 1821 1227 909 484 1 0 0 0 0 0 0 0 0 0 0 0 0 0 0 0 0 2 0 0 0 0 0 0
2970 3388 2431 2006 2320 2298 2586 2435 2508 2661 2952 3112 3353 2681 1962 1593 943 745 194 0 0 0 0 0 0 0 0 0 0 0 0 0 0 2 1 0 0 0 0 0 0 0 0
3248 2376 2277 2149 2130 2286 2276 2862 2900 2760 3009 3303 3160 2309 1932 1183 663 305 0 0 0 0 0 0 0 0 1 0 0 0 0 0 0 0 0 0 0 0 0 0 4 9 0
2477 2151 2905 2245 2391 2068 2973 3503 2977 3306 3221 3321 2728 2025 1316 756 305 28 0 0 0 0 0 0 0 0 0 0 0 0 0 0 0 0 0 0 0 0 0 0 0 0 0
2952 2884 3287 3456 3409 3346 3506 3674 3718 3366 3246 3100 2369 1459 818 35 46 0 0 0 0 0 0 0 0 0 0 0 0 0 0 0 0 0 0 0 0 0 0 0 0 0 2
3155 3307 3683 4026 3935 3988 4177 4278 4243 3714 3139 2743 1778 886 24 14 0 0 0 0 0 0 0 0 0 0 0 0 0 0 0 0 0 0 0 0 2 0 0 0 0 0 0
3477 3717 3985 4276 4143 4282 4195 4297 4125 3877 2399 2654 1113 257 15 0 0 0 0 0 0 0 0 0 0 0 0 0 0 0 0 0 0 0 0 0 0 3 0 0 2 0 0
3712 3926 4110 4304 4212 4348 4375 4386 4739 3103 2174 1414 696 120 1 0 0 0 0 0 0 0 0 0 0 0 0 0 0 0 0 0 0 0 0 0 0 0 0 0 9 16 21
3852 4059 4125 4316 4310 4418 4502 4690 4170 2153 1401 858 123 2 3 0 0 0 0 0 0 0 0 0 0 0 0 0 0 0 0 0 0 0 0 0 0 0 0 0 0 0 0
3832 4106 4322 4437 4528 4624 4716 4856 3459 2085 1180 384 48 2 0 0 0 0 0 0 0 0 0 0 0 0 0 0 0 0 0 0 0 0 0 7 0 1 1 2 0 0 0
4006 4152 4455 4571 4778 4888 4932 4558 2401 1638 994 147 8 0 0 0 0 0 0 0 0 0 0 0 0 0 0 0 0 0 0 0 0 0 0 0 0 0 0 0 15 4 3
4234 4367 4603 4818 4250 4320 4872 2939 2178 1593 358 68 7 1 0 0 0 0 0 0 0 0 0 0 0 0 0 0 0 0 0 0 0 0 0 0 0 0 0 0 23 38 2
4419 4445 4650 4740 4440 4590 3545 2152 1397 914 108 4 2 0 0 0 0 0 0 0 0 0 0 0 0 0 0 0 0 0 0 0 0 0 0 0 0 0 0 1 0 74 49
4451 4550 4622 4611 4478 4109 2193 1537 1132 277 141 43 1 0 0 0 0 0 0 0 0 0 0 0 0 0 0 0 0 0 0 0 0 0 0 0 0 0 0 0 0 0 0
4340 4408 4379 3476 3716 2379 1357 1114 1055 456 185 162 74 23 1 0 0 0 0 0 0 0 0 0 0 0 0 0 0 0 0 0 0 0 0 0 0 0 0 0 0 0 1
4174 3717 3402 3164 2745 1764 1548 144 0 214 7 10 5 56 3 0 0 0 0 0 0 0 0 0 0 0 0 0 0 0 0 0 0 0 0 0 0 0 0 0 0 0 0
3808 3524 2960 2344 2123 1846 1641 798 0 0 0 0 0 0 0 0 0 0 0 0 0 0 0 0 0 0 0 0 0 0 0 0 0 0 0 0 0 0 0 0 0 0 0
3526 2455 2522 2204 1760 1780 1445 915 318 67 12 0 0 0 0 0 0 0 0 0 0 0 0 0 0 0 0 0 0 0 0 0 0 0 0 0 0 0 0 0 0 1 1
2690 2278 2143 1765 1555 1063 1015 685 346 106 46 0 0 0 0 0 0 0 0 0 0 0 0 0 0 0 0 0 0 0 0 0 0 0 0 0 0 0 0 0 0 0 0
2420 1798 1771 2093 1152 912 730 649 361 249 187 1 0 0 0 0 0 0 0 0 0 0 0 0 0 0 0 0 0 0 0 0 0 0 0 0 0 0 0 0 0 0 3
2174 1873 1712 1896 1213 1257 1040 885 607 374 56 0 0 0 0 0 0 0 0 0 0 0 0 0 0 0 0 0 0 0 0 0 0 0 0 0 0 0 0 0 0 0 4
1944 1740 1659 1652 1314 1319 975 634 255 80 10 0 0 0 0 0 0 0 0 0 0 0 0 0 0 0 0 0 0 0 0 0 0 0 0 0 0 0 0 0 0 1 7
1746 1663 1557 1327 1270 717 652 473 245 95 0 0 0 0 0 0 0 0 0 0 0 0 0 0 0 0 0 0 0 0 0 0 0 0 0 0 0 0 0 0 0 3 9
1577 1437 1404 1248 1049 700 601 331 220 4 0 0 0 0 0 0 0 0 0 0 0 0 0 0 0 0 0 0 0 0 0 0 0 0 0 0 0 0 0 0 0 5 12
1361 1391 1528 1180 734 613 495 221 167 2 0 0 0 0 0 0 0 0 0 0 0 0 0 0 0 0 0 0 0 0 0 0 0 0 0 0 0 0 0 0 0 3 12
1309 1618 1674 1136 661 1211 504 262 35 0 0 0 0 0 0 0 0 0 0 0 0 0 0 0 0 0 0 0 0 0 0 0 0 0 0 0 0 0 0 0 0 4 12

GFSGL_con_sbcape_198.txt.gz
CAPE
2348 2543 2575 2428 2244 2496 2600 3221 3616 3832 4012 4011 4120 3368 2915 2222 2013 1826 1113 371 0 0 0 0 0 0 0 0 0 0 0 0 0 0 0 0 0 6 0 0 0 0 0
2586 2765 2500 2487 2384 2574 2892 3001 3257 3633 3997 4067 4105 3128 2480 2124 1827 1599 1134 59 0 0 0 0 0 0 0 15 0 1 0 0 0 0 0 0 0 0 0 0 0 0 0
2730 2804 2610 2681 2631 2639 2816 3020 3421 3699 3748 3690 3855 3237 2493 2069 1723 1334 515 0 0 0 0 0 0 0 1 0 0 0 0 0 0 0 0 0 0 0 0 0 0 0 0
2546 2662 2927 2472 2591 2686 2926 3264 3492 4029 3900 3975 3586 2837 2427 2063 1470 871 103 0 0 0 0 0 0 0 0 0 0 0 0 0 0 0 0 0 0 0 0 0 0 0 0
2536 2658 2637 2799 2932 2869 3072 3368 3779 3831 3772 3712 3057 2376 2196 1568 760 542 63 0 0 0 0 0 0 0 0 0 0 0 0 0 0 0 0 0 0 0 0 0 0 0 0
2466 2570 2757 3043 3060 3106 3437 3319 3954 3863 3454 3393 2747 2258 1672 819 0 0 3 0 0 0 0 0 0 0 0 0 0 0 0 0 0 0 0 0 0 0 0 0 0 0 0
2543 2601 2911 3280 3127 3365 3341 3788 3650 3740 3686 3501 2670 1930 863 153 0 0 0 11 0 0 0 0 0 0 0 0 0 0 0 0 0 0 0 0 0 0 0 0 0 0 0
2460 2799 3035 3269 3409 3558 3598 3793 3792 3812 3455 3128 2138 1373 620 30 0 0 0 0 0 0 0 0 0 0 0 0 0 0 0 0 0 0 0 0 0 0 0 0 0 0 0
2174 2879 3129 3293 3675 3654 3695 3671 3860 4108 3362 2635 1555 957 381 0 0 0 0 0 0 0 0 0 0 0 0 0 0 0 0 0 0 0 0 0 0 0 0 0 0 0 0
2557 2602 3308 3482 3765 3656 3856 3828 4055 4066 2994 1736 1120 551 94 0 0 0 0 0 0 0 0 0 0 0 0 0 0 0 0 0 0 0 0 0 0 5 0 0 0 16 0
2734 3128 3428 3717 3699 3821 3964 4151 4315 2853 1744 1089 448 167 62 0 0 0 0 0 0 0 0 0 0 0 0 0 0 0 0 0 0 0 0 0 0 0 0 11 10 12 1
3416 3414 3864 3974 3937 3968 4304 4405 3273 2016 1421 924 292 86 5 0 0 0 0 0 0 0 0 0 0 0 0 0 0 0 0 0 0 0 0 0 0 0 0 0 11 22 16
3847 4023 4035 4088 4222 4099 4503 4298 2508 2147 809 340 84 15 1 0 0 0 0 0 0 0 0 0 0 0 0 0 0 0 0 0 0 0 0 0 0 0 0 0 0 0 5
4104 4275 4146 4288 4336 4157 4462 3323 2401 1450 518 133 15 0 2 0 0 0 0 0 0 0 0 0 0 0 0 0 0 0 0 0 0 0 0 0 0 0 0 0 0 0 1
4369 4200 4170 4326 3986 4059 4098 2879 2263 1258 424 198 36 11 23 0 0 0 0 0 0 0 0 0 0 0 0 0 0 0 0 0 0 0 0 0 0 0 0 0 2 0 0
4322 4116 4108 4196 3984 3876 2800 49 0 515 293 23 8 65 30 3 0 0 0 0 0 0 0 0 0 0 0 0 0 0 0 0 0 0 0 0 0 0 0 0 1 5 0
4220 4020 3974 3579 3783 2628 2095 1452 1006 0 0 0 0 0 1 0 0 0 0 0 0 0 0 0 0 0 0 0 0 0 0 0 0 0 0 0 0 0 0 0 0 1 0
4265 3503 3816 3336 3465 2207 2017 1568 968 12 4 0 0 0 0 0 0 0 0 0 0 0 0 0 0 0 0 0 0 0 0 0 0 0 0 0 0 0 0 0 0 0 0
4246 3746 3369 3096 2878 2262 2276 1254 419 247 191 0 0 0 0 0 0 0 0 0 0 0 0 0 0 0 0 0 0 0 0 0 0 0 0 0 0 0 0 0 0 0 2
3731 3120 2947 2897 2201 1915 1939 1224 610 361 185 0 0 0 0 0 0 0 0 0 0 0 0 0 0 0 0 0 0 0 0 0 0 0 0 0 0 0 0 0 0 0 2
3333 2910 2416 2383 1917 1707 1439 1052 747 243 16 0 0 0 0 0 0 0 0 0 0 0 0 0 0 0 0 0 0 0 0 0 0 0 0 0 0 0 0 0 0 1 0
2994 2659 2108 2040 1323 1340 1108 955 504 246 238 0 0 0 0 0 0 0 0 0 0 0 0 0 0 0 0 0 0 0 0 0 0 0 0 0 0 0 0 0 0 3 0
2483 2115 1967 1893 1347 1091 906 1082 770 628 521 23 0 0 0 0 0 0 0 0 0 0 0 0 0 0 0 0 0 0 0 0 0 0 0 0 0 0 0 0 0 0 0
1481 1653 1653 1628 1154 1285 1042 1043 660 331 189 4 0 0 0 0 0 0 0 0 0 0 0 0 0 0 0 0 0 0 0 0 0 0 0 0 0 0 0 0 0 4 9
535 1398 1399 1272 840 1052 806 706 497 263 63 0 0 0 0 0 0 0 0 0 0 0 0 0 0 0 0 0 0 0 0 0 0 0 0 0 0 0 0 0 0 1 14
50 388 719 723 645 1123 1313 448 615 135 19 0 0 0 0 0 0 0 0 0 0 0 0 0 0 0 0 0 0 0 0 0 0 0 0 0 0 0 0 0 0 0 11

GFSGL_con_sbcape_201.txt.gz
CAPE
831 662 469 722 1238 963 1192 1563 2378 1920 2197 2318 2186 2230 1712 1313 1233 920 133 0 0 0 0 0 0 0 0 0 0 0 0 0 0 0 0 0 0 0 0 0 0 0 0
743 779 1237 1341 1237 1258 1014 1163 1708 2303 2212 2227 2546 1995 1471 1194 1099 784 396 0 0 0 0 0 0 0 0 0 0 0 0 0 0 0 0 0 0 0 0 0 0 0 0
1139 1351 1539 1669 1464 1250 1299 1443 1843 2059 2305 2558 2615 1910 1523 1134 1036 695 431 0 0 0 0 0 0 0 0 0 0 0 0 0 0 0 0 0 0 0 0 0 0 0 0
1422 1520 1655 1558 1499 1345 1420 1666 1920 2318 2335 2366 2603 2006 1368 1101 840 493 0 0 0 0 0 0 0 0 0 0 0 0 0 0 0 0 0 0 0 0 0 0 0 0 0
1501 1533 1724 1431 1579 1529 1574 1808 2005 2262 2445 2262 2541 1895 1331 988 625 92 0 0 0 0 0 0 0 0 0 0 0 0 0 0 0 0 0 0 0 0 0 0 0 0 0
1486 1573 1509 1755 1519 1638 1704 1789 2302 2230 2389 2659 2289 1673 1225 901 473 71 0 0 0 0 0 0 0 0 0 0 0 0 0 0 0 0 0 0 0 0 0 0 0 0 0
1519 1599 1633 1711 1794 1772 1817 2012 2198 2464 2229 2565 2023 1325 857 406 292 24 0 0 0 0 0 0 0 0 0 0 0 0 0 0 0 0 0 0 0 0 0 0 0 0 0
1448 1580 1703 1809 1871 1998 1964 2105 2071 2371 2376 2656 1838 1036 346 0 0 0 0 0 0 0 0 0 0 0 0 0 0 0 0 0 0 0 0 0 0 0 0 0 0 0 0
1329 1576 1719 1955 2061 2021 2163 2043 2496 2302 2603 2376 1613 564 165 0 0 0 0 0 0 0 0 0 0 0 0 0 0 0 0 0 0 0 0 0 0 0 0 0 0 0 0
1209 1574 1708 1965 2135 2253 2188 2307 2378 2591 2743 2200 1002 427 102 0 0 0 0 0 0 0 0 0 0 0 0 0 0 0 0 0 0 0 0 0 0 0 0 0 0 0 0
1213 1234 1904 2010 2128 2422 2414 2469 2423 2794 2879 1725 716 231 27 0 0 0 0 0 0 0 0 0 0 0 0 0 0 0 0 0 0 0 0 0 0 0 0 0 0 0 0
1203 1585 1591 2299 2386 2595 2654 2719 2676 2900 2756 1335 425 82 0 0 0 0 0 0 0 0 0 0 0 0 0 0 0 0 0 0 0 0 0 0 0 0 0 0 0 0 0
1716 1645 1995 2155 2625 2630 2834 2899 3024 2925 2193 996 369 89 0 0 0 0 0 0 0 0 0 0 0 0 0 0 0 0 0 0 0 0 0 0 0 0 0 0 0 0 0
2071 2109 2103 2641 2811 2785 2969 3013 3277 2569 1700 1234 360 123 0 0 0 0 0 0 0 0 0 0 0 0 0 0 0 0 0 0 0 0 0 0 0 0 0 0 0 0 0
2175 2486 2809 2892 2674 3094 3096 3282 3265 2350 1752 1159 412 148 0 0 0 0 0 0 0 0 0 0 0 0 0 0 0 0 0 0 0 0 0 0 0 0 0 0 0 0 0
3242 2798 2930 3151 3065 3218 3161 1030 0 1576 781 193 185 36 0 0 0 0 0 0 0 0 0 0 0 0 0 0 0 0 0 0 0 0 0 0 0 0 0 0 0 0 0
3532 3599 3421 3187 3255 3404 3276 2173 1951 0 0 2 5 0 0 0 0 0 0 0 0 0 0 0 0 0 0 0 0 0 0 0 0 0 0 0 0 0 0 0 0 0 0
3757 3507 3529 3186 3315 3530 3190 1907 1791 595 36 0 0 0 0 0 0 0 0 0 0 0 0 0 0 0 0 0 0 0 0 0 0 0 0 0 0 0 0 0 0 0 0
3972 3613 3076 3273 3284 3133 2647 1620 1300 230 359 0 0 0 0 0 0 0 0 0 0 0 0 0 0 0 0 0 0 0 0 0 0 0 0 0 0 0 0 0 0 0 0
3289 3635 3301 3113 2832 2009 1870 1490 1133 88 59 0 0 0 0 0 0 0 0 0 0 0 0 0 0 0 0 0 0 0 0 0 0 0 0 0 0 0 0 0 0 0 0
3552 3296 2517 2578 1744 1924 1806 1176 355 161 98 0 0 0 0 0 0 0 0 0 0 0 0 0 0 0 0 0 0 0 0 0 0 0 0 0 0 0 0 0 0 0 0
2921 2839 2324 2177 1649 1702 1734 828 178 82 15 0 0 0 0 0 0 0 0 0 0 0 0 0 0 0 0 0 0 0 0 0 0 0 0 0 0 0 0 0 0 0 0
2112 2077 2294 2110 1355 1206 775 751 114 49 0 0 0 0 0 0 0 0 0 0 0 0 0 0 0 0 0 0 0 0 0 0 0 0 0 0 0 0 0 0 0 0 0
643 843 1364 1158 1057 900 678 658 26 22 2 0 0 0 0 0 0 0 0 0 0 0 0 0 0 0 0 0 0 0 0 0 0 0 0 0 0 0 0 0 0 0 0
168 501 1121 977 738 831 611 546 264 132 1 0 0 0 0 0 0 0 0 0 0 0 0 0 0 0 0 0 0 0 0 0 0 0 0 0 0 0 0 0 0 0 0
0 20 122 575 706 531 405 172 77 0 0 0 0 0 0 0 0 0 0 0 0 0 0 0 0 0 0 0 0 0 0 0 0 0 0 0 0 0 0 0 0 0 0

GFSGL_con_sbcape_207.txt.gz
CAPE
546 375 251 158 291 371 320 258 286 304 386 462 720 1388 1179 905 506 122 0 0 0 0 0 0 0 0 0 0 0 0 0 0 0 0 0 0 0 0 0 0 0 0 0
523 440 300 128 138 190 236 195 115 269 507 730 1036 1350 1099 791 394 145 2 0 0 0 0 0 0 0 0 0 0 0 0 0 0 0 0 0 0 0 0 0 0 0 0
411 435 423 274 197 184 229 141 32 221 492 868 1121 1310 1044 704 426 123 0 0 0 0 0 0 0 0 0 0 0 0 0 0 0 0 0 0 0 0 0 0 0 0 0
261 321 242 312 236 278 275 233 141 80 289 674 1115 1191 1125 764 402 256 87 0 0 0 0 0 0 0 0 0 0 0 0 0 0 0 0 0 0 0 0 0 0 0 0
322 351 228 137 125 134 137 193 189 259 376 396 693 1068 1063 863 536 227 140 0 0 0 0 0 0 0 0 0 0 0 0 0 0 0 0 0 0 0 0 0 0 0 0
430 445 376 281 261 364 357 320 338 445 585 708 722 812 944 1106 937 275 70 0 0 0 0 0 0 0 0 0 0 0 0 0 0 0 0 0 0 0 0 0 0 0 0
481 447 425 350 405 576 777 774 729 666 712 822 1097 1156 1143 1025 898 92 2 0 0 0 0 0 0 0 0 0 0 0 0 0 0 0 0 0 0 0 0 0 0 0 0
430 456 464 475 584 668 834 890 891 811 843 792 1160 1236 1334 1055 659 10 0 0 0 0 0 0 0 0 0 0 0 0 0 0 0 0 0 0 0 0 0 0 0 0 0
463 557 638 661 745 812 844 926 975 920 951 955 1223 1287 1287 1241 198 0 0 0 0 0 0 0 0 0 0 0 0 0 0 0 0 0 0 0 0 0 0 0 0 0 0
641 666 746 783 793 924 905 923 1016 1036 1105 1027 1148 1390 1290 1229 37 0 0 0 0 0 0 0 0 0 0 0 0 0 0 0 0 0 0 0 0 0 0 0 0 0 0
776 734 738 823 854 893 1000 1035 1029 1051 1125 1034 1086 1425 1267 875 29 0 0 0 0 0 0 0 0 0 0 0 0 0 0 0 0 0 0 0 0 0 0 0 0 0 0
543 705 770 799 933 968 983 1011 1125 1215 1221 1216 1276 1463 1303 619 47 0 0 0 0 0 0 0 0 0 0 0 0 0 0 0 0 0 0 0 0 0 0 0 0 0 0
485 661 803 830 891 1027 1082 1099 1119 1214 1348 1381 1489 1622 1614 20 0 0 0 0 0 0 0 0 0 0 0 0 0 0 0 0 0 0 0 0 0 0 0 0 0 0 0
488 523 623 746 880 994 1104 1167 1291 1392 1454 1492 1545 1746 1690 1 0 0 0 0 0 0 0 0 0 0 0 0 0 0 0 0 0 0 0 0 0 0 0 0 0 0 0
593 616 540 588 548 945 1060 1189 1366 1468 1522 1574 1624 1749 1749 10 5 0 0 0 0 0 0 0 0 0 0 0 0 0 0 0 0 0 0 0 0 0 0 0 0 0 0
594 606 695 828 851 821 1116 1389 0 133 797 1276 1335 1757 1594 631 25 0 0 0 0 0 0 0 0 0 0 0 0 0 0 0 0 0 0 0 0 0 0 0 0 0 0
558 671 778 786 871 899 1058 1221 1473 17 2 38 21 887 1329 112 2 0 0 0 0 0 0 0 0 0 0 0 0 0 0 0 0 0 0 0 0 0 0 0 0 0 0
943 940 909 1002 1121 1200 1318 1456 1470 1619 1306 702 1 1 7 111 0 0 0 0 0 0 0 0 0 0 0 0 0 0 0 0 0 0 0 0 0 0 0 0 0 0 0
1609 1472 1118 1463 1377 1522 1731 1841 1952 2032 1706 642 0 0 1 0 1 0 0 0 0 0 0 0 0 0 0 0 0 0 0 0 0 0 0 0 0 0 0 0 0 0 0
2134 2619 2312 2070 2237 1976 1878 2177 2174 2054 1632 49 347 319 0 0 0 0 0 0 0 0 0 0 0 0 0 0 0 0 0 0 0 0 0 0 0 0 0 0 0 0 0
615 1688 2203 2264 2260 2261 2217 2091 2057 1562 1041 137 536 50 0 0 0 0 0 0 0 0 0 0 0 0 0 0 0 0 0 0 0 0 0 0 0 0 0 0 0 0 0
139 837 1370 2081 2035 1957 2051 2000 1652 1344 915 279 143 0 0 0 0 0 0 0 0 0 0 0 0 0 0 0 0 0 0 0 0 0 0 0 0 0 0 0 0 0 0
0 23 287 699 1365 1841 1862 1960 953 956 770 198 0 0 0 0 0 0 0 0 0 0 0 0 0 0 0 0 0 0 0 0 0 0 0 0 0 0 0 0 0 0 0
3 6 1 3 378 962 1592 1473 685 535 92 0 0 0 0 0 0 0 0 0 0 0 0 0 0 0 0 0 0 0 0 0 0 0 0 0 0 0 0 0 0 0 0
3 2 3 8 6 121 1037 1034 596 219 0 0 0 0 0 0 0 0 0 0 0 0 0 0 0 0 0 0 0 0 0 0 0 0 0 0 0 0 0 0 0 0 0
4 3 3 3 4 6 4 478 337 0 0 0 0 0 0 0 0 0 0 0 0 0 0 0 0 0 0 0 0 0 0 0 0 0 0 0 0 0 0 0 0 0 0

GFSGL_con_sbcape_210.txt.gz
CAPE
297 318 321 268 290 361 406 378 401 367 461 567 1004 1399 1418 1200 819 209 1 0 0 0 0 0 0 0 0 0 0 0 0 0 0 0 0 0 0 0 0 0 0 0 0
347 315 233 170 192 274 301 286 141 233 246 441 606 889 1267 1166 761 498 65 0 0 0 0 0 0 0 0 0 0 0 0 0 0 0 0 0 0 0 0 0 0 0 0
429 391 273 184 82 150 198 238 51 141 182 406 689 979 1192 1165 838 523 247 0 0 0 0 0 0 0 0 0 0 0 0 0 0 0 0 0 0 0 0 0 0 0 0
365 421 351 239 156 150 99 54 32 56 149 288 642 927 1161 1143 953 689 215 27 0 0 0 0 0 0 0 0 0 0 0 0 0 0 0 0 0 0 0 0 0 0 0
260 374 383 320 257 237 119 38 26 31 72 149 334 699 1058 1166 963 715 455 160 1 0 0 0 0 0 0 0 0 0 0 0 0 0 0 0 0 0 0 0 0 0 0
153 284 290 241 237 172 129 102 40 53 119 169 254 407 705 927 999 440 514 427 22 0 0 0 0 0 0 0 0 0 0 0 0 0 0 0 0 0 0 0 0 0 0
187 221 256 196 128 105 118 122 73 104 175 347 456 551 630 746 757 232 111 411 31 0 0 0 0 0 0 0 0 0 0 0 0 0 0 0 0 0 0 0 0 0 0
313 344 388 335 273 233 290 350 401 405 411 509 654 842 981 966 619 155 16 368 9 0 0 0 0 0 0 0 0 0 0 0 0 0 0 0 0 0 0 0 0 0 0
480 502 539 496 424 382 424 524 620 606 687 713 762 921 1034 1171 559 80 0 173 3 0 0 0 0 0 0 0 0 0 0 0 0 0 0 0 0 0 0 0 0 0 0
584 620 638 604 543 519 563 602 716 725 746 853 773 1013 1004 1181 246 20 0 185 65 1 0 0 0 0 0 0 0 0 0 0 0 0 0 0 0 0 0 0 0 0 0
576 626 652 693 686 684 714 737 785 798 902 825 876 987 1129 1035 761 2 1 397 153 14 0 0 0 0 0 0 0 0 0 0 0 0 0 0 0 0 0 0 0 0 0
601 658 699 762 794 812 834 856 854 836 869 955 992 1043 1061 1289 682 2 1 25 72 81 0 0 0 0 0 0 0 0 0 0 0 0 0 0 0 0 0 0 0 0 0
613 717 711 769 850 950 875 892 923 975 1083 1101 1109 1177 1291 1277 236 162 2 1 0 58 49 0 0 0 0 0 0 0 0 0 0 0 0 0 0 0 0 0 0 0 0
428 606 672 759 805 947 997 1017 1040 1081 1171 1262 1295 1318 1413 391 82 130 17 0 1 0 0 0 0 0 0 0 0 0 0 0 0 0 0 0 0 0 0 0 0 0 0
441 470 606 783 566 934 1062 1141 1227 1238 1229 1319 1353 1401 1460 1424 142 337 128 0 0 0 0 0 0 0 0 0 0 0 0 0 0 0 0 0 0 0 0 0 0 0 0
576 529 539 659 749 861 968 1075 603 438 920 924 880 1291 1443 1236 403 24 0 0 0 0 0 0 0 0 0 0 0 0 0 0 0 0 0 0 0 0 0 0 0 0 0
532 604 621 587 689 718 904 1037 1156 121 2 2 1 2 42 1320 279 8 0 1 0 0 0 0 0 0 0 0 0 0 0 0 0 0 0 0 0 0 0 0 0 0 0
354 297 537 536 794 787 898 999 1107 1191 1201 849 2 2 2 2 4 0 2 0 0 0 0 0 0 0 0 0 0 0 0 0 0 0 0 0 0 0 0 0 0 0 0
1522 1012 672 854 888 951 1095 1163 1294 1400 1486 1359 37 1 1 2 2 2 0 0 0 0 0 0 0 0 0 0 0 0 0 0 0 0 0 0 0 0 0 0 0 0 0
211 609 1051 1780 1752 1499 1291 1615 1776 1872 1907 1155 693 1277 0 0 0 0 0 0 0 0 0 0 0 0 0 0 0 0 0 0 0 0 0 0 0 0 0 0 0 0 0
27 213 333 1291 2017 2197 2244 2139 2145 2259 2159 1261 1266 1147 0 0 0 0 0 0 0 0 0 0 0 0 0 0 0 0 0 0 0 0 0 0 0 0 0 0 0 0 0
3 1 0 137 523 1087 1664 2174 2268 2119 2005 1581 1279 226 2 1 0 0 0 0 0 0 0 0 0 0 0 0 0 0 0 0 0 0 0 0 0 0 0 0 0 0 0
2 2 2 3 3 2 291 1364 2281 1721 1660 1317 1101 0 0 0 1 0 0 0 0 0 0 0 0 0 0 0 0 0 0 0 0 0 0 0 0 0 0 0 0 0 0
2 3 5 4 4 4 5 36 1199 1362 1148 1294 314 0 0 0 0 0 0 0 0 0 0 0 0 0 0 0 0 0 0 0 0 0 0 0 0 0 0 0 0 0 0
4 4 5 7 7 5 4 6 6 585 705 464 0 0 0 0 0 0 0 0 0 0 0 0 0 0 0 0 0 0 0 0 0 0 0 0 0 0 0 0 0 0 0
4 5 5 6 7 7 7 5 3 4 7 0 0 0 0 0 0 0 0 0 0 0 0 0 0 0 0 0 0 0 0 0 0 0 0 0 0 0 0 0 0 0 0